TimeMDT,TemperatureF,Dew PointF,Humidity,Sea Level PressureIn,VisibilityMPH,Wind Direction,Wind SpeedMPH,Gust SpeedMPH,PrecipitationIn,Events,Conditions,WindDirDegrees,DateUTC
12:53 AM,44.1,34.0,68,30.09,10.0,Calm,Calm,-,N/A,,Clear,0,2013-09-20 06:53:00
1:53 AM,37.0,32.0,82,30.10,10.0,North,4.6,-,N/A,,Clear,360,2013-09-20 07:53:00
2:53 AM,37.0,32.0,82,30.09,10.0,Calm,Calm,-,N/A,,Clear,0,2013-09-20 08:53:00
3:53 AM,35.1,30.9,85,30.08,10.0,Calm,Calm,-,N/A,,Clear,0,2013-09-20 09:53:00
4:53 AM,34.0,32.0,92,30.08,10.0,Calm,Calm,-,N/A,,Clear,0,2013-09-20 10:53:00
5:53 AM,33.1,30.0,89,30.08,10.0,NE,6.9,-,N/A,,Clear,40,2013-09-20 11:53:00
6:53 AM,33.1,30.0,89,30.09,10.0,Calm,Calm,-,N/A,,Clear,0,2013-09-20 12:53:00
7:53 AM,33.1,30.0,89,30.10,10.0,Calm,Calm,-,N/A,,Clear,0,2013-09-20 13:53:00
8:53 AM,44.1,34.0,68,30.09,10.0,Calm,Calm,-,N/A,,Clear,0,2013-09-20 14:53:00
9:53 AM,52.0,33.1,49,30.07,10.0,ENE,4.6,-,N/A,,Clear,60,2013-09-20 15:53:00
10:53 AM,59.0,32.0,36,30.05,10.0,ENE,8.1,-,N/A,,Clear,60,2013-09-20 16:53:00
11:53 AM,64.9,32.0,29,30.00,10.0,ENE,8.1,-,N/A,,Clear,70,2013-09-20 17:53:00
12:53 PM,70.0,30.0,23,29.95,10.0,East,6.9,-,N/A,,Clear,80,2013-09-20 18:53:00
1:53 PM,75.0,26.1,16,29.92,10.0,East,6.9,-,N/A,,Clear,90,2013-09-20 19:53:00
2:53 PM,78.1,19.0,11,29.88,10.0,Variable,5.8,-,N/A,,Clear,0,2013-09-20 20:53:00
3:53 PM,80.1,19.0,10,29.86,10.0,South,15.0,18.4,N/A,,Clear,180,2013-09-20 21:53:00
4:53 PM,80.1,19.9,11,29.84,10.0,SSE,16.1,21.9,N/A,,Clear,150,2013-09-20 22:53:00
5:53 PM,78.1,21.9,12,29.82,10.0,SSE,11.5,-,N/A,,Clear,160,2013-09-20 23:53:00
6:53 PM,75.0,21.9,14,29.81,10.0,South,9.2,-,N/A,,Clear,170,2013-09-21 00:53:00
7:53 PM,66.9,24.1,20,29.83,10.0,South,5.8,-,N/A,,Clear,190,2013-09-21 01:53:00
8:53 PM,60.1,25.0,26,29.82,10.0,South,5.8,-,N/A,,Clear,180,2013-09-21 02:53:00
9:53 PM,54.0,27.0,35,29.81,10.0,North,9.2,-,N/A,,Clear,10,2013-09-21 03:53:00
10:53 PM,70.0,28.0,21,29.73,10.0,WNW,9.2,18.4,N/A,,Clear,290,2013-09-21 04:53:00
11:53 PM,70.0,30.0,23,29.71,10.0,WSW,8.1,17.3,N/A,,Clear,250,2013-09-21 05:53:00